Notices

What's New in latest Release from April 7th, 2021:

- Updated Glossary, including Speed of Maximum Gust, and Total Hourly Precipitation

- Updated national and regional climate services offices contacts and prices information

- Addition of station inventory lists for 1981-2010, 1971-2000, and 1961-1990 Normals.

If you haven't already, please take our survey and provide feedback about our website: https://eccc.sondage-survey.ca/f/LanguageSelection.aspx?s=442ca660-fcf1-47c0-95a9-59707d6fd709

Hourly Data Report for February 23, 2021

SHEARWATER RCS
NOVA SCOTIA
Current Station Operator: ECCC - MSC

44°37'47.000" N
63°30'48.000" W
24.00 m
8205092
71264
AAW

Download Data

Hourly Data (February 2021)
Hourly Data Report for February 23, 2021
TIME
LST
Temp Definition
°C
Dew Point Definition
°C
Rel Hum Definition
%
Precip. Amount Definition
mm

Wind Dir Definition
10's deg

Wind Spd Definition
km/h
Visibility Definition
km
Stn Press Definition
kPa
Hmdx Definition


Wind Chill Definition


Weather Definition


00:00 1.1 -1.6 82 0.0 13 14   100.88     LegendNANA
01:00 1.2 -0.5 89 0.0 13 16   100.73     LegendNANA
02:00 1.7 0.7 93 1.7 13 18   100.53     LegendNANA
03:00 2.0 1.2 94 1.9 11 24   100.21     LegendNANA
04:00 2.1 1.6 96 2.4 11 29   99.91     LegendNANA
05:00 3.1 2.6 96 3.3 11 31   99.50     LegendNANA
06:00 4.4 3.9 97 4.2 14 34   99.27     LegendNANA
07:00 4.8 4.0 95 0.2 20 17   99.23     LegendNANA
08:00 4.2 3.2 93 0.0 20 14   99.17     LegendNANA
09:00 3.6 2.1 90 0.0 22 18   99.12     LegendNANA
10:00 3.5 1.9 90 0.0 22 18   99.08     LegendNANA
11:00 3.5 2.5 94 0.0 22 18   99.09     LegendNANA
12:00 4.1 2.8 92 0.0 23 19   99.04     LegendNANA
13:00 4.3 1.3 81 0.0 26 17   99.04     LegendNANA
14:00 4.1 1.0 80 0.0 26 17   99.05     LegendNANA
15:00 4.5 0.5 75 0.0 30 16   99.03     LegendNANA
16:00 3.4 -1.0 73 0.0 30 26   99.13     LegendNANA
17:00 2.9 -1.1 75 0.0 29 23   99.21     LegendNANA
18:00 2.9 -1.6 72 0.0 29 13   99.28     LegendNANA
19:00 2.6 -1.9 72 0.0 29 12   99.34     LegendNANA
20:00 2.2 -1.5 77 0.0 28 10   99.42     LegendNANA
21:00 1.8 -1.6 78 0.0 28 13   99.44     LegendNANA
22:00 1.6 -1.2 82 0.0 29 13   99.49     LegendNANA
23:00 1.4 -0.8 85 0.0 30 11   99.53     LegendNANA

Notes on Data Quality.

Legend

  • E = Estimated
  • M = Missing
  • NA = Not Available*
  • [empty] = Indicates an unobserved value
Date modified: